Location: Ermatingen
(47.6706°N, 9.0857°E)
Time: 05:34:03
(UTC+00:00)

USA 116 - Pass Details

Date: 18 September 2020
Orbit: 405 x 834 km, 97.9° (Epoch: 18 November)

Event Time Altitude Azimuth Distance (km) Brightness Sun altitude
Rises 18:17:24 0° 13° (NNE) 2,423 7.0 -8.9°
Reaches altitude 10° 18:19:19 10° 14° (NNE) 1,586 6.1 -9.2°
Maximum altitude 18:22:42 90° 30° (NNE) 486 3.4 -9.8°
Drops below altitude 10° 18:26:26 10° 195° (SSW) 1,750 6.3 -10.4°
Sets 18:28:40 0° 195° (SSW) 2,703 7.3 -10.8°
